STARLINK-11433, 62008

Orbit data source: Space-Track

STARLINK-11433, 62008 is a payload satellite owned by SpaceX/Seattle (US) in LEO that was launched on Mon, 18 Nov 2024 UTC via an FALCON 9 launch vehicle from the Air Force Western Test Range (AFWTR). Payload-class satellites include a variety of spacecraft equipped with specific instruments for various scientific and technological missions. These include communications satellites like Starlink; space stations such as the ISS; scientific satellites like the Hubble; Earth observation satellites from companies like Planet Labs, Umbra, and HawkEye 360; GPS; miniature CubeSats for education and research; and military/defense satellites.

Loading next visibility...
Identifier
62008, 2024-213A
Orbit
LEO
Last TLE update
16 hours ago
Origin
Manufacturer
SpaceX/Seattle
Mission
Operational Commercial Communications
Bus & Motor
STARLINK V2M, Unknown motor
Mass
730 kg wet, ~700 kg dry
Launch date (UTC)
2024-11-18 (7 months ago)
Launch vehicle
FALCON 9
Launch site
Air Force Western Test Range (AFWTR)
Object type
Payload
Rocket body
Debris
Shape & HBR
Box + 2 Pan, 29 m
Radar Cross Section
36.964 m², Large (>1 m²)

Expand to show TLE details & history

TLE from 16 hours ago
0 STARLINK-11433
1 62008U 24213A   25182.42593215  .00151068  00000-0  12272-2 0  9994
2 62008  53.1572 199.7307 0001463  92.5059 267.6126 15.69749327 35451
Epoch: 2025-07-01T10:13Z
TLE epoch observation values (Epoch: 2025-07-01T10:13:20.537Z)
Latitude
-0.00007°
Longitude
126.67352°
Altitude
360.57 km
Speed
7.694 km/s
True Right ascension
13h 18m 55s
True Declination
0° 00' 00"
Sunlit
Object was in daylight at epoch
Visualization orbit readout
Latitude
-0.1872°
Longitude
-56.4841°
Altitude
359.902 km
Speed
7.695 km/s
Apparent Right ascension
01h 27m 36s
Apparent Declination
-19° 29' 04"
Sunlit
Object is in daylight
Visualization observer readout
Local Sidereal Time
13:56:58
Azimuth
19.294° NNE
Elevation
-68.617°
Doppler factor
1
Orbital elements
Apogee altitude
360.861 km
Perigee altitude
358.89 km
Semi-major axis
6,738.012 km
Eccentricity
0.00015
Inclination
53.1572°
RAAN
199.7307°
Arg. of periapsis
92.5059°
True anomaly
Unknown
Mean anomaly
267.6126°
Eccentric anomaly
Unknown
Mean motion
3.92415 °/min
Orbital period
91.74 mins
BSTAR
0.0012272
Loading maneuver chart data...
Loading SW <> Apogee altitude chart data...
Loading historical data...
Loading historical data...
Loading historical data...
Loading historical data...
Loading historical data...
Loading historical data...
Loading historical data...

STARLINK-11433 Visibility forecast

Observer location: undefined°, undefined°

Span
Click to sort rows by Start time (UTC) header in descending order
Start Az.
Max El. time (UTC)
Max El. Az.
Max El.
End time (UTC)
End Az.
4 mins2025-07-02 03:11:56.023Z182.021° SSW2025-07-02 03:13:56.023Z124.655° SE23.126°2025-07-02 03:15:56.023Z77.043° E
4 mins2025-07-02 11:11:56.023Z280.975° WNW2025-07-02 11:13:56.023Z203.996° SW28.577°2025-07-02 11:15:56.023Z159.857° S
|